Wind_Speed
10 11 12 13 14 14 15 15 15 16 17 17 18 19 20 21 21 22 22 22 23 24 24 25 25 26 26 26 26 26 25 25 25 25 24 24 23 23 22 23 23 23 22 22 22 22 21 21 20
8 9 10 11 12 13 14 14 15 15 16 15 17 19 21 22 22 22 22 22 22 23 24 25 26 26 27 28 28 28 28 27 27 27 26 26 25 25 25 25 26 26 25 24 24 24 24 24 24
8 7 8 8 9 9 10 10 12 14 14 14 15 17 18 20 21 21 21 21 21 21 23 24 25 27 28 29 29 29 29 29 28 28 28 27 27 27 27 27 27 27 27 26 26 26 27 27 27
7 6 5 5 5 6 7 8 11 13 12 12 12 12 13 15 17 18 19 20 20 21 22 24 25 27 28 29 29 30 30 29 29 29 29 29 29 29 29 29 29 29 29 28 28 29 29 29 29
6 6 5 4 5 6 7 8 10 10 9 10 11 11 11 12 13 15 17 19 20 21 22 24 25 27 28 29 30 30 31 31 32 31 31 32 31 31 31 31 31 31 31 31 30 30 30 30 31
6 7 6 6 7 8 8 9 10 9 9 10 12 13 14 14 15 16 18 21 23 24 25 27 28 29 31 32 32 33 34 34 35 35 35 35 34 34 34 34 33 33 33 33 32 32 31 31 31
6 6 6 6 6 8 11 12 13 13 13 14 15 17 18 19 20 21 23 25 27 29 30 31 32 33 34 35 36 36 37 37 38 38 38 38 38 37 37 37 36 35 35 35 35 35 34 33 32
7 7 7 7 8 10 12 13 14 15 16 17 18 20 21 23 25 25 26 28 29 30 32 33 34 34 36 37 38 38 38 38 38 38 39 40 40 40 40 40 39 38 38 38 38 37 37 36 34
8 8 8 9 10 11 12 12 13 14 16 18 19 21 22 24 26 28 29 29 30 31 31 32 33 33 34 36 37 38 38 38 37 38 38 39 40 41 41 42 41 41 41 41 41 40 40 38 37
9 9 10 11 11 12 12 13 13 13 15 17 19 22 24 26 28 29 31 31 32 32 32 33 33 34 35 37 38 38 39 39 40 39 39 39 39 40 41 42 42 43 43 42 42 42 42 41 40
10 10 12 12 12 12 13 14 15 16 17 19 21 24 26 28 29 31 33 34 34 35 35 35 36 37 38 39 41 42 42 43 43 43 43 42 42 42 41 41 42 42 42 43 43 43 43 42 42
9 10 11 12 13 13 14 14 16 17 18 20 21 23 25 28 29 31 32 34 35 36 36 37 38 39 40 41 42 44 45 46 46 47 47 46 46 46 45 44 43 43 42 43 44 44 43 43 43
10 10 11 12 12 12 12 13 14 16 18 20 22 24 27 29 32 34 36 37 39 40 41 42 43 44 44 45 45 46 46 47 48 49 50 50 50 49 49 48 47 46 44 44 44 45 45 45 45
10 10 10 11 12 12 14 15 16 18 20 23 25 28 31 33 36 38 40 42 43 44 46 47 48 48 49 50 51 52 52 51 51 51 52 52 53 53 52 52 51 50 49 48 47 47 48 48 47
10 11 11 12 13 14 15 16 19 21 23 26 28 30 33 36 38 41 43 45 47 48 50 51 52 53 54 54 55 56 57 57 57 57 56 56 55 55 55 55 54 53 53 52 51 51 50 50 50
10 11 12 13 15 16 18 19 21 23 25 28 30 33 36 39 41 44 46 49 51 52 54 56 57 58 59 60 60 60 61 61 62 61 61 61 61 60 60 59 58 57 56 56 55 55 54 53 53
10 12 14 15 17 19 21 23 25 27 30 32 36 39 42 45 48 51 54 56 57 58 60 61 63 64 64 65 65 65 65 65 65 65 65 64 64 64 65 64 64 63 61 60 59 59 58 58 57
11 13 15 17 19 22 25 27 30 33 36 39 42 46 49 53 56 59 61 63 65 66 67 68 68 69 69 69 69 69 69 68 68 68 68 68 67 66 67 67 67 67 66 65 64 63 62 61 61
12 14 15 18 21 25 28 32 35 39 42 46 49 53 56 60 63 66 69 71 73 75 76 76 75 75 74 74 74 74 74 74 73 73 72 72 71 70 70 70 69 69 69 68 68 68 67 66 65
12 14 17 19 23 27 32 37 41 45 48 51 56 59 62 66 69 73 76 79 81 83 83 82 82 81 80 80 79 79 80 80 80 79 78 77 76 76 76 76 75 75 74 73 72 72 71 70 68
14 17 21 24 28 32 38 44 47 51 54 58 62 65 68 72 76 80 83 85 86 87 87 88 87 87 86 85 85 84 83 84 85 85 84 83 83 82 82 82 82 82 81 79 78 77 77 75 73
18 21 25 29 34 38 43 49 51 55 60 63 66 70 74 79 82 84 85 85 86 86 86 84 82 81 80 79 80 81 82 83 85 86 87 87 87 87 87 87 87 88 87 87 85 83 82 81 79
22 25 29 33 38 43 48 53 56 60 63 67 71 75 79 82 83 82 82 82 81 77 73 68 65 63 62 61 61 62 63 65 68 74 79 82 84 86 87 88 89 90 91 91 90 89 87 86 84
25 29 33 36 41 46 51 56 61 64 68 72 75 78 80 80 79 78 76 73 67 60 56 54 52 51 51 51 50 49 46 43 43 46 52 59 66 70 74 78 81 84 86 89 90 90 90 89 88
29 32 35 40 44 49 54 59 63 68 73 76 78 79 79 77 74 70 66 58 51 50 49 48 49 48 47 46 45 43 40 35 31 28 29 34 40 46 52 56 60 65 69 74 78 82 86 88 89
31 34 38 43 48 52 56 60 66 72 74 77 78 78 75 70 65 61 55 49 47 46 46 47 47 47 46 45 43 41 39 34 29 25 23 24 26 30 35 39 42 46 50 54 60 66 72 78 82
33 37 41 46 51 55 59 63 70 73 75 77 76 73 68 62 58 54 50 47 44 44 46 47 47 47 46 45 43 41 38 34 31 28 25 25 25 26 29 31 34 37 40 44 48 53 58 65 71
35 40 45 50 54 59 63 69 72 74 75 76 74 68 61 56 53 50 47 44 43 44 46 48 49 48 48 46 44 42 39 35 32 30 28 28 28 28 29 31 33 35 38 40 43 46 51 56 61
37 42 48 52 56 62 67 70 72 74 76 76 71 62 55 51 49 48 46 45 45 46 49 50 50 50 49 48 46 44 42 39 37 34 32 32 31 31 32 33 34 36 37 38 38 40 43 47 50
38 44 50 54 59 63 68 72 74 75 76 74 66 58 51 49 49 49 48 48 48 50 52 53 54 54 53 52 50 48 46 44 42 40 38 37 36 36 35 35 36 36 36 35 35 35 37 39 40
Wind_Direction
283 283 279 273 265 259 254 248 241 242 242 245 249 254 258 260 262 264 258 257 253 252 251 253 255 258 261 264 267 270 273 275 276 277 278 278 277 273 269 263 257 253 251 250 251 252 254 256 258
303 299 288 278 271 270 260 254 247 251 253 256 258 260 262 265 266 268 267 264 260 257 257 259 261 264 266 267 268 270 272 273 274 274 275 275 274 270 266 260 255 252 250 249 251 253 255 256 256
323 311 305 303 296 289 286 278 275 271 269 267 264 264 265 267 268 270 270 271 269 266 265 266 267 268 268 268 269 270 271 272 272 271 271 271 270 268 264 260 255 251 249 249 251 253 255 256 256
330 331 322 320 339 339 323 311 299 288 281 278 273 268 269 272 276 279 281 282 280 277 274 272 271 270 269 269 269 270 270 270 269 269 268 268 266 264 262 259 256 253 252 251 251 252 254 254 254
338 339 353 5 14 352 338 316 300 292 285 281 283 284 288 286 284 282 282 282 282 280 278 277 275 274 273 272 272 271 271 270 269 268 266 264 263 261 259 258 257 256 255 254 253 253 252 252 252
354 351 351 357 352 335 323 313 305 304 301 296 294 295 293 288 281 278 277 278 278 277 276 276 275 275 275 274 273 273 272 272 271 269 267 264 262 260 258 257 256 255 254 254 254 254 253 251 250
3 356 351 344 329 317 316 316 316 316 312 307 303 299 296 292 287 283 278 276 275 275 275 276 276 275 274 273 272 271 271 270 270 269 267 265 263 261 259 258 256 254 253 252 252 252 252 251 249
2 354 345 333 322 314 314 315 314 312 309 306 302 298 294 292 290 288 286 284 283 282 282 282 282 281 278 276 275 273 272 270 269 268 267 265 263 261 260 259 257 255 252 251 250 249 249 249 248
17 7 356 347 339 332 329 323 317 312 307 304 301 298 296 295 294 294 293 292 291 289 288 287 286 284 282 280 278 275 274 271 269 267 266 265 264 262 260 258 257 256 253 251 249 247 247 247 246
22 13 3 358 351 343 336 329 323 314 307 302 300 298 297 297 297 297 297 296 295 293 291 288 286 284 282 281 280 279 277 275 273 270 268 266 265 264 262 261 259 256 254 252 250 247 245 244 244
10 1 355 351 343 337 329 322 318 313 309 306 302 300 299 300 301 301 302 301 299 297 294 291 288 285 282 280 279 278 277 275 274 272 271 268 267 265 264 263 262 259 255 252 250 248 245 244 242
352 349 346 339 335 333 330 327 323 322 320 318 313 310 309 308 308 306 304 303 301 298 296 293 290 287 283 280 277 276 274 273 272 271 269 268 266 266 265 263 262 261 257 253 250 248 246 244 242
355 353 349 346 349 352 350 345 338 333 329 325 321 318 315 312 309 306 304 302 300 297 295 293 290 287 285 282 279 277 274 271 269 268 267 266 264 263 264 263 261 259 257 255 253 250 248 246 243
18 17 16 15 15 9 1 350 341 334 328 323 319 315 312 309 307 304 302 300 298 295 293 290 288 285 283 281 279 277 275 272 270 267 265 264 262 261 260 260 260 259 257 254 253 252 249 247 245
38 32 25 18 10 0 351 340 333 330 325 322 319 316 313 310 307 304 302 300 297 295 292 290 287 285 283 281 278 276 274 273 271 268 265 263 261 259 258 256 256 256 256 255 253 252 251 248 246
31 22 15 7 359 351 346 341 339 336 330 326 323 319 315 311 308 304 302 299 296 294 291 289 287 285 283 281 279 276 274 272 270 268 266 264 261 259 258 256 255 254 253 253 253 252 251 250 248
20 12 9 3 358 354 349 346 343 338 332 327 322 318 315 311 308 306 303 300 297 294 291 289 287 284 282 281 279 276 273 271 268 266 264 263 262 260 259 257 256 255 253 252 251 251 250 249 248
7 4 3 0 355 349 344 340 336 332 328 323 319 316 314 311 309 307 304 301 299 296 293 290 287 284 282 280 278 276 273 270 267 265 263 262 261 260 259 258 257 256 254 252 251 250 249 248 248
356 355 354 352 347 341 336 332 330 327 323 320 317 314 311 309 307 305 303 301 299 297 295 292 290 286 283 279 275 273 271 269 268 266 263 261 260 259 258 257 256 256 255 254 252 251 249 248 248
345 344 342 340 336 332 327 325 324 322 320 318 315 312 310 308 306 305 304 302 300 297 295 293 290 286 283 279 275 271 267 264 263 263 262 262 260 259 258 258 257 257 256 255 254 252 250 249 248
338 336 333 330 328 325 323 322 322 320 319 317 314 312 310 308 306 305 304 303 300 298 296 295 293 292 290 287 282 276 271 267 263 260 259 258 258 258 258 258 258 257 257 256 256 256 253 251 249
331 328 325 323 323 323 322 319 320 320 318 315 314 313 312 311 310 308 306 304 301 300 300 301 301 301 300 299 295 290 282 274 267 263 260 259 258 257 257 257 257 258 257 257 256 256 256 254 252
325 323 322 321 321 322 321 321 320 319 318 316 316 316 315 314 312 310 308 307 306 307 308 310 311 310 309 308 306 302 296 288 278 269 263 261 261 261 260 259 259 259 259 259 258 257 255 254 253
322 322 322 322 322 323 323 321 319 319 319 319 319 319 318 316 314 313 312 312 313 315 317 319 320 320 319 318 317 316 311 302 291 278 269 264 262 262 263 264 263 262 261 261 260 258 256 254 253
324 325 324 324 326 325 323 321 320 321 321 322 322 322 320 318 318 317 316 317 319 321 323 325 326 327 327 327 325 324 323 318 308 291 275 266 262 261 262 263 264 264 263 262 260 259 257 254 252
324 325 327 327 325 324 323 322 322 322 323 324 325 324 322 321 321 321 323 323 324 325 326 327 329 330 331 331 330 329 327 324 318 307 292 278 268 263 262 263 264 265 264 262 259 256 253 251 249
326 327 328 327 325 325 325 324 323 324 326 327 326 325 323 324 325 327 326 325 325 326 328 329 330 331 331 330 330 329 327 324 319 311 302 294 286 279 276 273 272 272 271 269 266 261 255 250 246
329 330 330 329 326 325 325 325 327 327 328 328 328 326 326 327 329 329 327 325 325 326 327 329 329 329 328 327 326 325 323 320 316 311 304 297 292 288 284 281 279 280 279 277 272 265 258 253 248
332 332 330 329 327 326 325 327 328 329 330 330 329 328 328 329 330 330 328 325 324 323 324 325 325 325 324 323 321 319 316 314 310 306 301 296 292 289 286 284 284 284 283 283 279 270 261 253 247
333 332 331 330 328 327 326 328 330 331 332 331 330 328 329 330 330 330 329 327 323 321 321 320 320 320 319 318 316 314 311 308 305 301 298 294 291 288 287 285 285 284 285 285 281 275 265 252 241
Height
5840 5840 5841 5843 5844 5844 5843 5844 5844 5844 5844 5844 5845 5845 5845 5846 5848 5851 5849 5848 5849 5848 5848 5848 5848 5848 5847 5847 5847 5846 5846 5845 5845 5845 5845 5845 5845 5845 5845 5845 5846 5847 5848 5848 5849 5850 5850 5851 5852
5839 5840 5842 5842 5842 5842 5843 5843 5842 5843 5844 5844 5844 5844 5843 5843 5844 5844 5844 5844 5844 5844 5844 5844 5844 5844 5843 5843 5842 5842 5841 5840 5840 5840 5840 5840 5840 5840 5840 5840 5841 5841 5842 5843 5844 5845 5846 5846 5847
5839 5840 5842 5842 5841 5842 5843 5843 5842 5842 5842 5842 5842 5842 5842 5842 5841 5841 5841 5841 5841 5841 5840 5840 5840 5839 5838 5838 5837 5836 5836 5835 5835 5834 5834 5834 5834 5834 5834 5835 5835 5836 5836 5837 5838 5839 5840 5841 5842
5840 5842 5842 5841 5841 5842 5842 5842 5842 5842 5841 5840 5840 5841 5841 5840 5840 5840 5839 5839 5838 5838 5837 5836 5835 5834 5833 5833 5832 5831 5830 5830 5829 5829 5828 5828 5828 5828 5829 5829 5829 5830 5830 5831 5832 5833 5834 5835 5837
5841 5842 5842 5841 5841 5841 5841 5841 5841 5841 5840 5840 5840 5840 5840 5840 5840 5839 5837 5836 5835 5834 5833 5832 5831 5830 5829 5828 5826 5825 5824 5824 5823 5822 5822 5822 5821 5821 5822 5822 5823 5823 5824 5824 5825 5826 5827 5828 5830
5843 5842 5842 5841 5841 5841 5841 5841 5840 5840 5840 5839 5839 5838 5837 5837 5837 5836 5834 5832 5831 5829 5827 5826 5825 5824 5822 5821 5820 5818 5817 5816 5816 5815 5815 5814 5814 5814 5814 5815 5815 5816 5817 5817 5818 5819 5820 5821 5823
5843 5842 5841 5841 5841 5841 5841 5841 5840 5840 5839 5838 5837 5836 5834 5832 5831 5831 5829 5828 5826 5823 5821 5820 5818 5816 5815 5813 5812 5810 5809 5808 5807 5807 5806 5806 5806 5806 5806 5807 5808 5808 5809 5809 5810 5811 5812 5814 5816
5842 5842 5841 5841 5841 5841 5841 5840 5839 5838 5837 5835 5834 5832 5830 5828 5826 5825 5823 5822 5820 5818 5816 5813 5811 5809 5807 5805 5803 5802 5800 5799 5798 5798 5797 5797 5797 5798 5798 5798 5799 5800 5801 5801 5802 5803 5804 5806 5808
5842 5843 5841 5841 5841 5840 5839 5839 5838 5836 5834 5832 5830 5828 5826 5824 5822 5820 5818 5816 5814 5812 5810 5807 5805 5802 5800 5798 5796 5794 5792 5790 5789 5789 5788 5788 5788 5788 5788 5789 5790 5790 5791 5792 5793 5794 5796 5797 5799
5842 5842 5841 5841 5840 5839 5838 5837 5836 5834 5832 5830 5828 5826 5824 5822 5819 5816 5814 5811 5809 5807 5804 5801 5799 5796 5793 5790 5788 5786 5784 5782 5780 5779 5779 5779 5779 5779 5779 5779 5780 5780 5781 5782 5784 5785 5786 5788 5790
5842 5841 5841 5840 5839 5839 5837 5835 5833 5832 5830 5828 5826 5823 5821 5818 5816 5812 5809 5806 5803 5800 5797 5794 5791 5788 5785 5782 5779 5777 5775 5773 5771 5770 5769 5769 5769 5769 5769 5770 5770 5770 5771 5772 5773 5775 5777 5779 5781
5842 5841 5840 5839 5838 5837 5835 5833 5831 5829 5827 5825 5822 5820 5817 5814 5810 5807 5804 5800 5796 5793 5789 5786 5782 5779 5776 5773 5770 5767 5765 5763 5761 5760 5759 5759 5758 5758 5759 5759 5760 5760 5761 5762 5763 5764 5767 5769 5771
5841 5840 5839 5838 5837 5836 5834 5832 5830 5827 5825 5823 5821 5818 5814 5811 5807 5803 5799 5794 5790 5785 5781 5777 5773 5769 5765 5762 5758 5756 5753 5751 5750 5748 5747 5747 5747 5747 5747 5748 5748 5749 5750 5752 5753 5755 5757 5759 5761
5841 5840 5839 5838 5838 5835 5834 5832 5830 5827 5825 5822 5819 5815 5812 5807 5803 5798 5792 5787 5782 5776 5771 5766 5762 5757 5753 5749 5745 5742 5740 5738 5736 5735 5734 5733 5733 5733 5734 5734 5735 5737 5738 5740 5741 5743 5746 5748 5751
5841 5841 5840 5839 5837 5835 5834 5831 5828 5826 5823 5820 5816 5811 5806 5801 5796 5790 5784 5778 5773 5767 5761 5755 5750 5744 5740 5736 5732 5728 5725 5722 5720 5719 5718 5718 5718 5718 5719 5720 5721 5723 5725 5727 5729 5731 5733 5736 5739
5842 5841 5840 5838 5836 5835 5834 5830 5827 5823 5820 5815 5810 5805 5800 5794 5788 5782 5776 5769 5763 5756 5749 5743 5737 5731 5726 5721 5717 5713 5709 5706 5703 5702 5701 5701 5701 5701 5702 5704 5705 5707 5709 5712 5715 5718 5720 5723 5727
5842 5841 5840 5838 5835 5833 5831 5826 5823 5819 5814 5809 5804 5799 5792 5786 5779 5772 5765 5758 5751 5744 5737 5730 5723 5717 5711 5705 5700 5696 5692 5689 5686 5683 5682 5681 5682 5682 5684 5685 5687 5690 5693 5696 5699 5703 5706 5709 5712
5842 5840 5839 5836 5833 5830 5826 5822 5818 5814 5809 5804 5798 5791 5784 5777 5769 5761 5752 5744 5736 5728 5720 5712 5705 5698 5693 5687 5682 5677 5673 5670 5667 5665 5663 5662 5662 5663 5664 5666 5668 5670 5674 5678 5681 5685 5689 5693 5697
5842 5840 5837 5834 5831 5827 5822 5818 5814 5809 5804 5798 5791 5783 5775 5766 5757 5747 5737 5728 5718 5709 5699 5691 5683 5675 5669 5663 5658 5655 5651 5649 5646 5644 5642 5641 5642 5642 5643 5645 5648 5650 5654 5658 5662 5666 5670 5676 5679
5841 5838 5835 5832 5828 5824 5819 5814 5810 5804 5797 5790 5781 5772 5763 5754 5743 5732 5721 5710 5698 5686 5675 5665 5655 5647 5639 5633 5628 5625 5623 5621 5621 5620 5620 5619 5619 5620 5622 5624 5627 5630 5634 5638 5641 5645 5650 5656 5660
5839 5836 5832 5829 5825 5820 5815 5809 5803 5797 5789 5780 5770 5760 5749 5738 5727 5715 5702 5689 5674 5660 5647 5635 5624 5615 5608 5601 5596 5594 5592 5591 5590 5590 5592 5593 5594 5595 5597 5600 5604 5608 5612 5617 5620 5624 5628 5634 5640
5837 5834 5830 5825 5820 5815 5810 5802 5796 5788 5779 5768 5758 5746 5734 5722 5709 5694 5680 5666 5651 5637 5624 5613 5602 5591 5581 5572 5565 5559 5557 5558 5559 5560 5563 5565 5566 5569 5572 5575 5579 5583 5588 5593 5598 5602 5606 5611 5618
5834 5830 5826 5820 5814 5809 5802 5794 5788 5778 5767 5756 5744 5732 5718 5705 5690 5675 5659 5644 5630 5617 5606 5596 5586 5575 5565 5555 5545 5536 5529 5525 5526 5529 5534 5538 5541 5544 5547 5551 5555 5560 5564 5568 5573 5578 5583 5589 5595
5831 5827 5822 5816 5810 5803 5795 5786 5776 5765 5754 5742 5729 5716 5702 5687 5672 5657 5641 5627 5615 5604 5594 5585 5575 5565 5554 5544 5533 5523 5515 5508 5505 5504 5508 5513 5518 5522 5524 5528 5532 5536 5540 5543 5547 5552 5558 5564 5571
5827 5823 5818 5811 5804 5797 5787 5776 5766 5754 5741 5728 5715 5701 5685 5670 5655 5641 5628 5616 5605 5595 5586 5576 5566 5557 5546 5536 5526 5516 5507 5501 5496 5493 5494 5496 5500 5504 5507 5510 5512 5514 5517 5519 5522 5526 5532 5538 5545
5823 5818 5812 5805 5797 5789 5779 5768 5757 5744 5730 5716 5701 5685 5669 5655 5642 5628 5616 5605 5596 5587 5577 5568 5559 5549 5539 5530 5520 5511 5503 5497 5492 5488 5487 5487 5489 5491 5493 5495 5496 5497 5497 5498 5499 5502 5506 5511 5517
5818 5812 5806 5798 5789 5780 5770 5759 5747 5732 5719 5704 5688 5672 5657 5644 5631 5618 5607 5597 5588 5579 5570 5560 5551 5542 5533 5524 5516 5508 5500 5493 5488 5484 5482 5481 5480 5481 5482 5482 5483 5482 5482 5481 5481 5482 5484 5486 5492
5813 5806 5799 5790 5779 5770 5760 5748 5735 5720 5708 5693 5677 5662 5647 5634 5621 5610 5599 5589 5581 5572 5562 5553 5544 5535 5526 5518 5510 5503 5496 5490 5484 5480 5477 5474 5472 5471 5471 5470 5470 5469 5467 5465 5464 5463 5464 5466 5471
5808 5801 5792 5783 5771 5759 5747 5740 5724 5709 5694 5679 5664 5649 5637 5625 5613 5602 5592 5582 5573 5564 5555 5546 5537 5528 5520 5511 5504 5497 5490 5484 5479 5474 5470 5466 5464 5462 5460 5458 5457 5455 5453 5450 5448 5446 5446 5448 5452
5804 5795 5786 5777 5765 5752 5739 5730 5711 5696 5680 5665 5651 5638 5627 5616 5605 5595 5584 5574 5565 5556 5547 5538 5528 5519 5510 5502 5494 5487 5480 5474 5469 5464 5460 5456 5453 5450 5448 5446 5444 5442 5440 5437 5434 5432 5431 5433 5438